Location: Emporia
(38.4040°N, 96.1810°W)
Time: 08:44:23
(UTC-05:00)

Amateur Radio Satellites - All Passes

Search period start: 25 March 2017 08:14
Search period end: 26 March 2017 08:14
Location: Emporia, 38.4040°N, 96.1810°W

Satellite Date Start Highest point End Downlink Frequencies (MHz)
Time Altitude Azimuth
BEESAT 2 25 Mar 08:25:30 08:28:43 22° 50° (NE) 08:31:55 435.950
STRAND 1 25 Mar 08:28:10 08:33:10 51° 260° (W) 08:38:11 437.568
XW-2A 25 Mar 08:38:18 08:41:40 61° 101° (E) 08:44:58 145.665 - 145.685
CUTE-I 25 Mar 08:54:55 08:59:14 26° 294° (WNW) 09:03:33 437.470
CUBEBUG 2 25 Mar 08:56:32 09:00:30 32° 96° (E) 09:04:20 437.445
YUBILEINY 25 Mar 08:57:39 09:06:25 86° 277° (W) 09:15:12 435.215
NO-84 25 Mar 09:03:08 09:05:17 19° 325° (NW) 09:07:26 435.350 FM
DOVE 4 25 Mar 09:04:29 09:06:55 13° 298° (WNW) 09:09:20 437.250
Oscar 11 25 Mar 09:08:26 09:09:29 11° 90° (E) 09:10:33 .
ZACube-1 25 Mar 09:11:39 09:14:11 16° 92° (E) 09:16:43 437.345
AAUSAT CUBESAT 2 25 Mar 09:15:24 09:19:15 37° 98° (E) 09:23:06 437.432
SEEDS 25 Mar 09:26:06 09:30:17 74° 283° (WNW) 09:34:27 437.485
CUTE 1.7 + AOD 2 25 Mar 09:30:12 09:34:11 42° 287° (WNW) 09:38:09 437.475
PRISM 25 Mar 09:33:03 09:36:29 27° 70° (ENE) 09:39:57 437.425
HO-68 25 Mar 09:33:50 09:40:56 69° 289° (WNW) 09:48:02 435.675
AO-73 25 Mar 09:40:02 09:43:45 30° 96° (E) 09:47:23 145.935
FO-29 25 Mar 09:41:22 09:47:00 22° 62° (ENE) 09:52:24 435.910
TIGRISAT 25 Mar 09:44:18 09:47:34 19° 66° (ENE) 09:50:50 435.000
BEESAT 3 25 Mar 09:51:36 09:54:10 17° 250° (WSW) 09:56:45 437.485
UNISAT 6 25 Mar 09:53:21 09:57:11 25° 69° (ENE) 10:01:00 437.425
UWE-3 25 Mar 10:02:13 10:06:33 72° 284° (WNW) 10:10:43 435.000/436.395/437.385
BEESAT 2 25 Mar 10:02:54 10:06:32 32° 246° (WSW) 10:10:07 435.950
PCSat 25 Mar 10:05:55 10:10:48 36° 110° (ESE) 10:15:42 145.827
CUBEBUG 2 25 Mar 10:33:36 10:36:53 21° 293° (WNW) 10:40:04 437.445
JUGNU 25 Mar 10:37:53 10:40:03 12° 178° (S) 10:42:13 437.505
Oscar 11 25 Mar 10:41:44 10:45:57 58° 286° (WNW) 10:50:10 .
ZACube-1 25 Mar 10:46:42 10:50:38 38° 288° (WNW) 10:54:29 437.345
DELFI C3 25 Mar 10:48:10 10:52:01 46° 99° (E) 10:55:52 145.870
AAUSAT CUBESAT 2 25 Mar 10:51:46 10:54:24 17° 293° (WNW) 10:57:03 437.432
YUBILEINY 25 Mar 10:59:28 11:04:32 16° 297° (WNW) 11:09:38 435.215
PRISM 25 Mar 11:08:39 11:11:44 21° 265° (W) 11:14:51 437.425
AIST 2D 25 Mar 11:09:36 11:11:55 17° 69° (ENE) 11:14:14 435.315
POLYITAN 1 25 Mar 11:11:16 11:13:13 13° 65° (ENE) 11:15:12 437.675
QB50P2 25 Mar 11:15:10 11:17:42 16° 66° (ENE) 11:20:14 145.880/145.840
AO-73 25 Mar 11:16:41 11:19:46 20° 292° (WNW) 11:22:49 145.935
TIGRISAT 25 Mar 11:19:28 11:23:55 42° 262° (W) 11:28:22 435.000
FO-29 25 Mar 11:23:24 11:31:17 77° 257° (WSW) 11:38:48 435.910
HO-68 25 Mar 11:24:42 11:27:22 12° 308° (NW) 11:30:01 435.675
DUCHIFAT 1 25 Mar 11:29:20 11:32:05 17° 66° (ENE) 11:34:49 145.980
UNISAT 6 25 Mar 11:29:34 11:33:43 31° 264° (W) 11:37:52 437.425
PCSat 25 Mar 11:49:25 11:54:11 31° 307° (NW) 11:59:00 145.827
BUGSAT 1 25 Mar 11:54:02 11:54:09 10° 63° (ENE) 11:54:14 437.445
NANOSAT C BR1 25 Mar 12:12:56 12:17:07 58° 74° (ENE) 12:21:19 145.865
RS-15 25 Mar 12:13:59 12:23:29 29° 102° (ESE) 12:33:13 29.354- 29.394
EO-79 25 Mar 12:16:32 12:20:47 71° 76° (ENE) 12:25:03 145.935-145.965
DELFI C3 25 Mar 12:24:39 12:26:23 13° 294° (WNW) 12:28:07 145.870
JUGNU 25 Mar 12:27:20 12:28:08 10° 188° (S) 12:28:58 437.505
VELOX 1 25 Mar 12:31:39 12:33:24 12° 91° (E) 12:35:09 145.980
SRMSAT 25 Mar 12:38:25 12:40:23 12° 175° (S) 12:42:21 437.500
AIST 2D 25 Mar 12:41:57 12:44:56 25° 264° (W) 12:47:56 435.315
POLYITAN 1 25 Mar 12:44:20 12:48:31 54° 260° (W) 12:52:44 437.675
ESTCUBE 1 25 Mar 12:47:17 12:51:47 66° 101° (E) 12:56:16 437.505/2401.250
LO-87 25 Mar 12:48:30 12:52:01 46° 286° (WNW) 12:55:31 145.935 - 145.965
QB50P2 25 Mar 12:49:01 12:53:06 43° 261° (W) 12:57:13 145.880/145.840
DUCHIFAT 1 25 Mar 13:03:26 13:07:25 39° 262° (W) 13:11:25 145.980
FO-29 25 Mar 13:13:44 13:17:06 13° 272° (W) 13:20:26 435.910
SPROUT 25 Mar 13:24:15 13:28:20 42° 99° (E) 13:32:22 437.525
BUGSAT 1 25 Mar 13:24:40 13:28:52 70° 258° (WSW) 13:33:08 437.445
Oscar 19 25 Mar 13:30:17 13:34:59 39° 70° (ENE) 13:39:44 437.125/150
Gurwin Techsat 1B 25 Mar 13:34:31 13:38:47 25° 66° (ENE) 13:43:05 435.225
DX 1 25 Mar 13:47:26 13:51:27 34° 98° (E) 13:55:27 434.975-435.025
50 SAT 25 Mar 13:51:25 13:54:56 67° 102° (ESE) 13:58:24 437.505
NANOSAT C BR1 25 Mar 13:52:10 13:53:09 11° 269° (W) 13:54:09 145.865
NO-84 25 Mar 14:00:16 14:02:01 14° 31° (NNE) 14:03:50 435.350 FM
VELOX 1 25 Mar 14:05:47 14:10:10 56° 286° (WNW) 14:14:32 145.980
RS-15 25 Mar 14:22:44 14:34:43 77° 303° (WNW) 14:47:11 29.354- 29.394
ESTCUBE 1 25 Mar 14:26:23 14:28:00 12° 297° (WNW) 14:29:37 437.505/2401.250
SRMSAT 25 Mar 14:26:39 14:28:38 12° 185° (S) 14:30:38 437.500
UKube-1 25 Mar 14:29:58 14:34:18 75° 101° (ESE) 14:38:38 .
AO-7 25 Mar 15:01:14 15:08:40 38° 61° (ENE) 15:16:06 .
SPROUT 25 Mar 15:01:16 15:03:53 16° 294° (WNW) 15:06:28 437.525
SO-50 25 Mar 15:02:00 15:05:53 26° 112° (ESE) 15:09:43 436.795
Oscar 19 25 Mar 15:10:27 15:14:24 22° 265° (W) 15:18:23 437.125/150
Gurwin Techsat 1B 25 Mar 15:13:35 15:18:30 38° 262° (W) 15:23:27 435.225
ITAMSAT 1 25 Mar 15:14:20 15:19:06 36° 69° (ENE) 15:23:51 435.822/435.867
DX 1 25 Mar 15:24:11 15:27:24 20° 293° (WNW) 15:30:36 434.975-435.025
NO-84 25 Mar 15:36:34 15:39:51 72° 226° (SW) 15:43:26 435.350 FM
BEESAT 25 Mar 15:42:28 15:46:42 31° 97° (E) 15:50:53 436.000
ITUPSAT 1 25 Mar 15:57:37 16:02:10 44° 99° (E) 16:06:41 437.325
MOZHAYETS 4 25 Mar 16:10:35 16:14:20 25° 95° (E) 16:18:03
RS-15 25 Mar 16:39:46 16:49:42 28° 330° (NNW) 16:59:49 29.354- 29.394
SO-50 25 Mar 16:42:00 16:46:12 33° 308° (NW) 16:50:23 436.795
AO-7 25 Mar 16:53:15 17:01:12 48° 259° (WSW) 17:09:10 .
ITAMSAT 1 25 Mar 16:54:19 16:58:35 25° 265° (W) 17:02:54 435.822/435.867
CUBESAT XI-V 25 Mar 17:00:39 17:03:00 14° 91° (E) 17:05:21 437.345
BEESAT 25 Mar 17:20:26 17:24:19 25° 292° (WNW) 17:28:11 436.000
ITUPSAT 1 25 Mar 17:36:22 17:39:38 19° 295° (WNW) 17:42:54 437.325
KKS-1 25 Mar 17:36:42 17:41:00 43° 99° (E) 17:45:15 437.445
O/OREOS (USA 219) 25 Mar 17:43:34 17:48:01 62° 108° (ESE) 17:52:31 437.305
MOZHAYETS 4 25 Mar 17:47:32 17:51:26 29° 290° (WNW) 17:55:19
LilacSat-2 25 Mar 18:09:49 18:13:04 27° 71° (ENE) 18:16:19 437.200
XW-2F 25 Mar 18:10:36 18:13:44 25° 71° (ENE) 18:16:52 145.980 - 146.000
STARS 25 Mar 18:16:03 18:20:23 51° 100° (E) 18:24:40 437.465
HO-68 25 Mar 18:17:13 18:20:39 14° 54° (NE) 18:24:04 435.675
DOVE 4 25 Mar 18:28:14 18:32:47 64° 75° (ENE) 18:37:39 437.250
CUTE-I 25 Mar 18:34:35 18:39:48 55° 72° (ENE) 18:45:04 437.470
XW-2D 25 Mar 18:35:09 18:38:53 55° 75° (ENE) 18:42:36 145.860 - 145.880
CUBESAT XI-V 25 Mar 18:36:08 18:40:39 54° 287° (WNW) 18:45:12 437.345
NUDT-PHONESAT 25 Mar 18:38:47 18:42:23 46° 74° (ENE) 18:45:59 437.300
XW-2B 25 Mar 18:41:00 18:44:46 64° 76° (ENE) 18:48:33 145.730 - 145.750
KAITUO 1B 25 Mar 18:44:35 18:48:16 56° 76° (ENE) 18:51:57 145.475/437.950
XW-2C 25 Mar 18:51:05 18:54:54 89° 83° (E) 18:58:43 145.795 - 145.815
PCSat 25 Mar 18:55:17 18:59:35 23° 50° (NE) 19:03:52 145.827
M-CUBED/EXP-1 PRIME 25 Mar 18:59:55 19:03:24 21° 99° (E) 19:06:52 437.505
RS-15 25 Mar 19:00:22 19:08:24 19° 6° (N) 19:16:22 29.354- 29.394
XW-2A 25 Mar 19:09:07 19:11:20 16° 69° (ENE) 19:13:33 145.665 - 145.685
YUBILEINY 25 Mar 19:09:57 19:18:11 44° 75° (ENE) 19:26:22 435.215
KKS-1 25 Mar 19:14:19 19:17:11 17° 295° (WNW) 19:20:02 437.445
O/OREOS (USA 219) 25 Mar 19:25:36 19:27:51 13° 305° (NW) 19:30:08 437.305
LilacSat-2 25 Mar 19:44:36 19:47:20 18° 266° (W) 19:50:03 437.200
XW-2F 25 Mar 19:45:02 19:47:50 19° 265° (W) 19:50:37 145.980 - 146.000
CUBEBUG 2 25 Mar 19:52:46 19:56:38 25° 69° (ENE) 20:00:30 437.445
STARS 25 Mar 19:53:54 19:56:16 14° 296° (WNW) 19:58:36 437.465
HO-68 25 Mar 20:00:05 20:07:12 77° 72° (ENE) 20:14:22 435.675
AAUSAT CUBESAT 2 25 Mar 20:04:34 20:07:36 20° 69° (ENE) 20:10:39 437.432
ZACube-1 25 Mar 20:06:50 20:08:40 12° 64° (ENE) 20:10:31 437.345
DOVE 4 25 Mar 20:09:16 20:11:00 12° 272° (W) 20:12:45 437.250
SEEDS 25 Mar 20:15:51 20:19:57 59° 75° (ENE) 20:24:04 437.485
NUDT-PHONESAT 25 Mar 20:16:24 20:16:32 10° 269° (W) 20:16:39 437.300
CUTE-I 25 Mar 20:16:40 20:20:09 17° 268° (W) 20:23:39 437.470
CUTE 1.7 + AOD 2 25 Mar 20:20:40 20:24:52 75° 258° (WSW) 20:29:06 437.475
M-CUBED/EXP-1 PRIME 25 Mar 20:33:33 20:37:53 40° 293° (WNW) 20:42:14 437.505
AO-73 25 Mar 20:34:01 20:37:29 22° 68° (ENE) 20:40:55 145.935
PCSat 25 Mar 20:38:01 20:43:16 51° 248° (WSW) 20:48:28 145.827
STRAND 1 25 Mar 20:40:00 20:45:04 62° 101° (ESE) 20:50:06 437.568
XW-2A 25 Mar 20:41:02 20:43:54 24° 264° (W) 20:46:48 145.665 - 145.685
AO-85 25 Mar 20:44:47 20:47:27 16° 111° (ESE) 20:50:04 145.980
UWE-3 25 Mar 20:56:41 21:01:21 74° 76° (ENE) 21:05:58 435.000/436.395/437.385
ISS 25 Mar 21:06:01 21:08:51 28° 133° (SE) 21:11:42 437.550
YUBILEINY 25 Mar 21:07:01 21:14:45 38° 274° (W) 21:22:30 435.215
Tancredo 1 25 Mar 21:10:41 21:13:37 35° 135° (SE) 21:16:33 437.200
RS-15 25 Mar 21:14:57 21:26:08 37° 40° (NE) 21:36:53 29.354- 29.394
CUBEBUG 2 25 Mar 21:28:51 21:33:04 31° 264° (W) 21:37:19 437.445
DELFI C3 25 Mar 21:32:41 21:35:41 21° 69° (ENE) 21:38:42 145.870
Oscar 11 25 Mar 21:34:25 21:38:45 86° 75° (ENE) 21:43:04 .
AAUSAT CUBESAT 2 25 Mar 21:39:19 21:42:52 28° 264° (W) 21:46:28 437.432
ZACube-1 25 Mar 21:39:53 21:44:24 64° 259° (W) 21:48:54 437.345
HO-68 25 Mar 21:51:04 21:55:34 18° 269° (W) 22:00:05 435.675
AO-73 25 Mar 22:09:24 22:13:29 33° 263° (W) 22:17:34 145.935
STRAND 1 25 Mar 22:20:45 22:23:41 16° 297° (WNW) 22:26:39 437.568
AO-85 25 Mar 22:23:15 22:27:33 47° 304° (NW) 22:31:34 145.980
FO-29 25 Mar 22:38:44 22:41:23 13° 87° (E) 22:43:54 435.910
ISS 25 Mar 22:42:22 22:45:16 29° 329° (NNW) 22:48:12 437.550
Tancredo 1 25 Mar 22:47:10 22:49:49 24° 331° (NNW) 22:52:29 437.200
PRISM 25 Mar 22:50:07 22:54:12 55° 101° (E) 22:58:17 437.425
DELFI C3 25 Mar 23:07:08 23:10:21 24° 264° (W) 23:13:35 145.870
TIGRISAT 25 Mar 23:12:30 23:16:43 43° 99° (E) 23:20:49 435.000
UNISAT 6 25 Mar 23:22:17 23:26:40 63° 100° (E) 23:30:57 437.425
LO-87 25 Mar 23:22:46 23:26:14 49° 74° (ENE) 23:29:44 145.935 - 145.965
RS-15 25 Mar 23:27:34 23:39:45 74° 245° (WSW) 23:51:19 29.354- 29.394
SO-50 25 Mar 23:34:43 23:37:49 18° 45° (NE) 23:40:53 436.795
BEESAT 3 25 Mar 23:38:27 23:42:20 71° 302° (WNW) 23:46:18 437.485
ESTCUBE 1 25 Mar 23:45:07 23:49:25 49° 73° (ENE) 23:53:44 437.505/2401.250
BEESAT 2 25 Mar 23:52:08 23:56:00 59° 118° (ESE) 23:59:57 435.950
EO-79 26 Mar 00:04:36 00:06:25 12° 92° (E) 00:08:14 145.935-145.965
AIST 2D 26 Mar 00:08:26 00:11:15 23° 96° (E) 00:14:03 435.315
SPROUT 26 Mar 00:16:15 00:19:51 27° 70° (ENE) 00:23:29 437.525
FO-29 26 Mar 00:21:16 00:27:16 71° 287° (WNW) 00:32:38 435.910
50 SAT 26 Mar 00:24:12 00:26:42 19° 70° (ENE) 00:29:15 437.505
PRISM 26 Mar 00:27:22 00:28:59 12° 296° (WNW) 00:30:37 437.425
POLYITAN 1 26 Mar 00:31:00 00:34:33 26° 96° (E) 00:38:05 437.675
QB50P2 26 Mar 00:35:23 00:39:12 31° 97° (E) 00:42:58 145.880/145.840
DX 1 26 Mar 00:41:42 00:45:15 25° 68° (ENE) 00:48:49 434.975-435.025
DUCHIFAT 1 26 Mar 00:48:46 00:52:38 34° 98° (E) 00:56:26 145.980
TIGRISAT 26 Mar 00:50:21 00:53:00 16° 295° (WNW) 00:55:37 435.000
VELOX 1 26 Mar 01:01:03 01:05:26 79° 258° (WSW) 01:09:53 145.980
UNISAT 6 26 Mar 01:01:17 01:02:47 12° 297° (WNW) 01:04:17 437.425
BUGSAT 1 26 Mar 01:08:52 01:11:47 18° 94° (E) 01:14:40 437.445
SO-50 26 Mar 01:14:12 01:18:35 54° 243° (WSW) 01:22:57 436.795
UKube-1 26 Mar 01:22:40 01:26:49 50° 73° (ENE) 01:31:00 .
ESTCUBE 1 26 Mar 01:24:08 01:26:29 14° 268° (W) 01:28:49 437.505/2401.250
BEESAT 2 26 Mar 01:32:04 01:34:10 14° 315° (NW) 01:36:16 435.950
NANOSAT C BR1 26 Mar 01:34:12 01:38:22 60° 285° (WNW) 01:42:29 145.865
EO-79 26 Mar 01:38:21 01:42:27 48° 287° (WNW) 01:46:30 145.935-145.965
AIST 2D 26 Mar 01:41:56 01:44:18 17° 291° (WNW) 01:46:40 435.315
RS-15 26 Mar 01:44:01 01:49:51 15° 265° (W) 01:55:37 29.354- 29.394
Oscar 19 26 Mar 01:44:27 01:47:27 15° 92° (E) 01:50:25 437.125/150
SPROUT 26 Mar 01:52:12 01:55:42 24° 265° (W) 01:59:13 437.525
50 SAT 26 Mar 01:57:01 01:59:38 20° 264° (W) 02:02:16 437.505
POLYITAN 1 26 Mar 02:06:49 02:10:13 24° 291° (WNW) 02:13:35 437.675
QB50P2 26 Mar 02:11:40 02:14:45 20° 292° (WNW) 02:17:49 145.880/145.840
DX 1 26 Mar 02:17:40 02:21:19 26° 264° (W) 02:25:00 434.975-435.025
DUCHIFAT 1 26 Mar 02:25:07 02:28:02 18° 293° (WNW) 02:30:56 145.980
BUGSAT 1 26 Mar 02:43:28 02:47:12 32° 289° (WNW) 02:50:53 437.445
BEESAT 26 Mar 02:47:22 02:51:33 31° 69° (ENE) 02:55:44 436.000
UKube-1 26 Mar 03:01:11 03:03:07 13° 268° (W) 03:05:04 .
ITUPSAT 1 26 Mar 03:02:42 03:07:14 44° 71° (ENE) 03:11:46 437.325
MOZHAYETS 4 26 Mar 03:11:17 03:14:43 21° 67° (ENE) 03:18:08
Oscar 19 26 Mar 03:22:01 03:27:06 58° 287° (WNW) 03:32:10 437.125/150
ITAMSAT 1 26 Mar 03:30:11 03:32:47 14° 91° (E) 03:35:23 435.822/435.867
Gurwin Techsat 1B 26 Mar 03:30:45 03:36:07 87° 284° (WNW) 03:41:25 435.225
ISS 26 Mar 03:34:55 03:37:45 26° 29° (NNE) 03:40:34 437.550
Tancredo 1 26 Mar 03:38:26 03:41:17 29° 31° (NNE) 03:44:09 437.200
O/OREOS (USA 219) 26 Mar 03:54:58 03:59:36 89° 252° (WSW) 04:04:12 437.305
CUBESAT XI-V 26 Mar 04:03:35 04:05:17 12° 63° (ENE) 04:07:00 437.345
BEESAT 26 Mar 04:25:21 04:29:17 25° 264° (W) 04:33:15 436.000
KKS-1 26 Mar 04:33:13 04:37:13 34° 70° (ENE) 04:41:14 437.445
ITUPSAT 1 26 Mar 04:41:59 04:45:14 18° 266° (W) 04:48:30 437.325
MOZHAYETS 4 26 Mar 04:47:24 04:51:37 35° 262° (W) 04:55:51
AO-7 26 Mar 04:55:58 05:04:12 66° 105° (ESE) 05:12:25 .
ITAMSAT 1 26 Mar 05:07:31 05:12:40 64° 287° (WNW) 05:17:47 435.822/435.867
STARS 26 Mar 05:11:00 05:15:04 37° 71° (ENE) 05:19:10 437.465
ISS 26 Mar 05:11:13 05:14:15 35° 226° (SW) 05:17:18 437.550
Gurwin Techsat 1B 26 Mar 05:13:56 05:15:12 11° 301° (WNW) 05:16:29 435.225
Tancredo 1 26 Mar 05:14:36 05:17:23 27° 227° (SW) 05:20:10 437.200
CUBESAT XI-V 26 Mar 05:37:31 05:42:04 66° 259° (W) 05:46:39 437.345
M-CUBED/EXP-1 PRIME 26 Mar 05:45:20 05:47:40 16° 60° (ENE) 05:50:07 437.505
KKS-1 26 Mar 06:10:29 06:13:49 20° 265° (W) 06:17:10 437.445
DOVE 4 26 Mar 06:29:02 06:33:11 23° 93° (E) 06:37:14 437.250
STARS 26 Mar 06:48:30 06:51:31 18° 266° (W) 06:54:34 437.465
AO-7 26 Mar 06:49:40 06:56:20 28° 303° (WNW) 07:03:01 .
CUTE-I 26 Mar 06:53:45 06:58:04 24° 95° (E) 07:02:21 437.470
NO-84 26 Mar 06:54:34 06:56:49 20° 128° (SE) 06:59:00 435.350 FM
AO-85 26 Mar 06:55:30 06:59:26 89° 61° (ENE) 07:03:31 145.980
XW-2F 26 Mar 07:17:34 07:21:09 43° 99° (E) 07:24:42 145.980 - 146.000
LilacSat-2 26 Mar 07:17:59 07:21:39 48° 99° (E) 07:25:17 437.200
M-CUBED/EXP-1 PRIME 26 Mar 07:18:29 07:21:47 34° 258° (WSW) 07:25:22 437.505
HO-68 26 Mar 07:31:50 07:35:33 15° 90° (E) 07:39:16 435.675
XW-2D 26 Mar 07:43:05 07:46:51 77° 281° (W) 07:50:34 145.860 - 145.880
NUDT-PHONESAT 26 Mar 07:44:24 07:48:05 84° 105° (ESE) 07:51:44 437.300
XW-2B 26 Mar 07:49:02 07:52:46 66° 284° (WNW) 07:56:28 145.730 - 145.750
KAITUO 1B 26 Mar 07:51:04 07:54:46 78° 282° (WNW) 07:58:26 145.475/437.950
STRAND 1 26 Mar 07:54:10 07:59:18 76° 75° (ENE) 08:04:28 437.568
BEESAT 3 26 Mar 07:56:40 08:00:27 38° 54° (NE) 08:04:12 437.485
XW-2C 26 Mar 07:59:18 08:02:55 47° 286° (WNW) 08:06:30 145.795 - 145.815
SEEDS 26 Mar 08:03:30 08:04:35 11° 91° (E) 08:05:42 437.485
XW-2A 26 Mar 08:04:29 08:06:59 19° 95° (E) 08:09:29 145.665 - 145.685
CUTE 1.7 + AOD 2 26 Mar 08:07:40 08:10:49 20° 94° (E) 08:13:56 437.475
